COSMOS 84

Satellite information

Favourite Embed

Satellite Type and Status

PAYLOADIN ORBIT

Key statistics

Satellite COSMOS 84 at a glance.

Uptime

21971

Days in orbit

Revolutions

≈ 12.4

Per day

Orbit

LEO

Low Earth Orbit

Inclination

56.1

Latest

Satellite identification and parameters

Extended collection of information and parameters for COSMOS 84.

Object identification

Identified? True

Debris? False

Object name: COSMOS 84

International designator: 1965-070E

Object number (NORAD): 1574

Object ID (CCSDS): 1574

Country: COMMONWEALTH OF INDEPENDENT STATES (CIS)

Current information (Y/N): Y

RCS size: MEDIUM

Orbital parameters

Period: 116.407 minutes

Inclination: 56.0545 deg

SMA: 7897.337 km

Apoapsis: 1568.149 km

Periapsis: 1470.255 km

RAAN: 317.2659 deg

Eccentricy: 0.00619787

Argument of periapsis: 291.5667 deg

Mean anomaly: 80.4498 deg

Mean motion: 12.37034349 rev/day

Mean motion (dot): -0.00000076 rev/day2

B* drag term: 0.00012085423 1/REarth

Two-line elements (TLE)

Creation date: Oct. 28, 2025, 7:11 p.m.

Reference frame: TEME

Reference center: EARTH

Epoch: Oct. 28, 2025, 8:11 a.m. UTC

TLE line 0: 0 COSMOS 84

TLE line 1: 1 01574U 65070E 25301.34166020 -.00000076 00000-0 12085-3 0 9991

TLE line 2: 2 01574 56.0545 317.2659 0061979 291.5667 80.4498 12.37034349717740

Live tracking on map

Real-time ground track for satellite COSMOS 84.

In-orbit conjunctions

There are no conjunctions computed for COSMOS 84, at the moment. Check back to stay up to date, as we update our databases every day.

Go to all conjunctions

Associated space launch

The Strela-1 satellites were prototype store-dump communications satellites for tactical communication.

COSMOS 84 was lifted into orbit during the mission ‘Kosmos 65S3 | Strela-1 20 to 24’, on board a Kosmos 65S3 space rocket.

The launch took place on Sept. 3, 1965, 2 p.m. from 41/15.

For more information about the launch, click the button.

Launch to space Kosmos 65S3 | Strela-1 20 to 24
Kosmos 65S3 | Strela-1 20 to 24

Agency: N/A

Status: Launch Successful

Launch date: Sept. 3, 1965, 2 p.m. UTC

Rocket: Kosmos 65S3

Launch pad: 41/15

Location: Baikonur Cosmodrome, Republic of Kazakhstan

...

Latest news about this satellite

There are no fresh news available about this satellite. Check back as we update our databases every day.


Newsletter sign-up

Weekly statistics, charts and insights to help you stay on top of the space industry.